SL-12 R/B(AUX MOTOR), 33385

Orbit data source: Space-Track

SL-12 R/B(AUX MOTOR), 33385 is space debris in HEO originally from a launch on Thu, 25 Sep 2008 UTC launched from the Tyuratam Missile And Space Complex (TTMTR). Debris objects in space refer to the collection of defunct objects orbiting the Earth. Examples of debris include non-operational satellites, rocket bodies, and fragments generated from explosions, collisions, or faulty payload assembly.

Loading next visibility...
Identifier
33385, 2008-046H
Orbit
HEO
Country
Flag of CISCIS
Related business
Manufacturer
RKKE
Mission
Spacecraft
Bus & Motor
SOZ, Unknown motor
Mass
56 kg wet, 56 kg dry
Launch date (UTC)
2008-09-25 (18 years ago)
Launch vehicle
Unknown
Launch site
Tyuratam Missile And Space Complex (TTMTR)
Object type
Payload
Rocket body
Debris
Shape & HBR
Cyl, 0.6 m
Radar Cross Section
0.660 m², Medium (>0.1 m² and < 1m²)

Expand to show TLE details & history
Last TLE update: 3 days ago

TLE from 3 days ago
0 SL-12 R/B(AUX MOTOR)
1 33385U 08046H   26170.98308131 -.00000236  00000-0 -38672-2 0  9990
2 33385  65.2128  55.4803 5540350 270.5489  29.6557  4.21893365185605
Epoch: 2026-06-19T23:35Z
TLE epoch observation values (Epoch: 2026-06-19T23:35:38.225Z)
Latitude
-0.00014°
Longitude
153.38635°
Altitude
4,790.207 km
Speed
6.838 km/s
True Right ascension
03h 41m 59s
True Declination
0° 00' 00"
Sunlit
Object was in daylight at epoch
Visualization orbit readout
Latitude
Unknown
Longitude
Unknown
Altitude
Unknown
Speed
Unknown
Apparent Right ascension
Unknown
Apparent Declination
Unknown
Sunlit
N/A
Visualization observer readout
Local Sidereal Time
02:17:17
Azimuth
Unknown
Elevation
Unknown
Doppler factor
Unknown
Orbital elements
Apogee altitude
18,761.819 km
Perigee altitude
836.334 km
Semi-major axis
16,177.213 km
Eccentricity
0.55404
Inclination
65.2128°
RAAN
55.4803°
Arg. of periapsis
270.5489°
True anomaly
89.52383°
Mean anomaly
29.6557°
Eccentric anomaly
55.96023°
Mean motion
1.05484 °/min
Orbital period
341.28 mins
BSTAR
-0.0038672
Loading maneuver chart data...
Computing Atmospheric mass density...
Loading historical data...
Loading historical data...
Loading historical data...
Loading historical data...
Loading historical data...
Loading historical data...
Loading historical data...

Documentation

Showing up to 5 results
|